Content
SEND FEEDBACK

Daily
Averages
Monthly
Summary
Turkmenistan

KURTILE, TURKMENISTAN


Home > Asia > Turkmenistan
Elevation: 748 feet     Latitude: 37 58N     Longitude: 058 19E

WEATHER
 
SELECT A DAY
Number of Records: 181,509;   Date Range: 3/15/97 - 10/30/14
 
SHARE

PRINT THIS DATA

[ ← Previous Day ]
WEATHER ALMANAC - FEBRUARY 18, 2013
[ Next Day → ]
[ °C ]   °F
Weather ElementAverageHighLow
Temperature45.3 °F50 °F (3:00 pm)39.2 °F (5:00 am)
Dewpoint39.8 °F44.6 °F (10:00 pm)36 °F (5:00 am)
Humidity80.2 %93 % (5:00 am)61 % (5:00 pm)
Barometer30.04 in30.10 in (11:00 am)30.01 in (1:00 am)
Wind Speed4.2 mph6.7 mph (8:00 am)
Weather ElementAverage
Visibility6 mi
Wind DirectionS (178.6 °)

Weather ElementTotal
Precipitation---
Heating Degree Days20.4 (Base 65)
Averaged from 30 records on February 18, 2013
WEATHER CONDITIONS BREAKOUT
WIND DIRECTION BREAKOUT
WEATHER BY HOUR - FEBRUARY 18, 2013
[ °C ]   °F
Local TimeTemperatureDewpointHumidityBarometerVisibilityWind DirectionWind SpeedGust SpeedPrecipitationEventsConditions
1:00 AM42.8 °F39.2 °F87 %30.01 in6.2 miCalmClear
2:00 AM42.0 °F39.0 °F87 %30.04 in6.0 miSouth (190°)4.5 mph
2:00 AM41.0 °F37.4 °F87 %30.01 in6.2 miSouth (190°)4.5 mphClear
3:00 AM42.8 °F39.2 °F87 %30.01 in6.2 miSouth (180°)4.5 mphClear
4:00 AM41.0 °F37.4 °F87 %30.01 in5.6 miSSW (200°)4.5 mphClear
5:00 AM40.0 °F36.0 °F78 %30.05 in6.0 miCalm
5:00 AM39.2 °F37.4 °F93 %30.01 in6.2 miSW (220°)4.5 mphClear
6:00 AM41.0 °F37.4 °F87 %30.01 in6.2 miSW (230°)4.5 mphMostly Cloudy
7:00 AM42.8 °F39.2 °F87 %30.04 in6.2 miWSW (240°)4.5 mphOvercast
8:00 AM42.0 °F38.0 °F83 %30.08 in6.0 miNW (310°)4.5 mphOvercast
8:00 AM42.8 °F39.2 °F87 %30.06 in6.2 miNW (310°)6.7 mphMostly Cloudy
9:00 AM42.8 °F39.2 °F87 %30.06 in6.2 miNW (310°)4.5 mphMostly Cloudy
10:00 AM42.8 °F39.2 °F87 %30.06 in6.2 miNNW (330°)4.5 mphMostly Cloudy
11:00 AM44.0 °F38.0 °F74 %30.10 in6.0 miNNE (20°)4.5 mphOvercast
11:00 AM44.6 °F39.2 °F81 %30.06 in6.2 miVariable2.2 mphOvercast
12:00 PM44.6 °F39.2 °F81 %30.06 in6.2 miVariable2.2 mphOvercast
1:00 PM46.4 °F39.2 °F76 %30.04 in6.2 miNE (50°)4.5 mphOvercast
2:00 PM48.0 °F39.0 °F63 %30.07 in6.0 miNNE (30°)4.5 mphOvercast
2:00 PM48.2 °F39.2 °F71 %30.04 in6.2 miEast (100°)4.5 mphOvercast
3:00 PM50.0 °F39.2 °F66 %30.01 in6.2 miESE (120°)6.7 mphOvercast
4:00 PM50.0 °F41.0 °F71 %30.01 in6.2 miSE (130°)4.5 mphOvercast
5:00 PM49.0 °F40.0 °F61 %30.04 in6.0 miEast (80°)4.5 mphOvercast
5:00 PM50.0 °F41.0 °F71 %30.01 in6.2 miSE (140°)4.5 mphOvercast
6:00 PM50.0 °F41.0 °F71 %30.01 in6.2 miSouth (170°)4.5 mphOvercast
7:00 PM50.0 °F41.0 °F71 %30.04 in6.2 miWest (280°)6.7 mphOvercast
8:00 PM48.2 °F42.8 °F82 %30.04 in5.6 miSSE (150°)4.5 mphOvercast
9:00 PM48.2 °F42.8 °F82 %30.06 in5.0 miNorth (350°)4.5 mphRainLight Rain Showers
10:00 PM48.2 °F44.6 °F87 %30.06 in4.3 miNW (310°)4.5 mphRainLight Rain Showers
11:00 PM47.0 °F44.0 °F86 %30.10 in6.0 miWest (270°)2.2 mphRainLight Rain Showers
11:00 PM48.2 °F44.6 °F87 %30.06 in5.0 miWest (270°)4.5 mphOvercast
Hourly data recorded from UTAA, located miles away from Kurtile, Turkmenistan







STORIES FROM OUR PARTNERS